Location: Barrio de Canyet
(41.4665°N, 2.2381°E)
Time: 09:04:12
(UTC+00:00)

BREEZE M DEB (TANK) - Pass Details

Date: 09 April 2020
Orbit: 313 x 13666 km, 49.6° (Epoch: 01 June)

Event Time Altitude Azimuth Distance (km) Brightness Sun altitude
Rises 20:36:02 0° 256° (WSW) 6,518 8.8 -23.2°
Reaches altitude 10° 20:42:16 10° 263° (W) 3,881 7.7 -24.1°
Maximum altitude 20:49:28 40° 332° (NNW) 981 4.4 -25.2°
Enters shadow 20:50:45 29° 19° (NNE) 1,021 4.3 -25.4°
